Hourly Data Report for October 01, 2017

All times are specified in Local Standard Time (LST). Add 1 hour to adjust for Daylight Saving Time where and when it is observed.

CHARLOTTETOWN A
PRINCE EDWARD ISLAND

46°17'21.000" N
63°07'09.000" W
48.50 m
8300301
71706
YYG

Download Data

Hourly Data (October 2017)
Hourly Data Report for October 1, 2017
Temp Definition
°C
Dew Point Temp Definition
°C
Rel Hum Definition
%
Wind Dir Definition
10's deg

Wind Spd Definition
km/h
Visibility Definition
km
Stn Press Definition
kPa
Hmdx Definition


Wind Chill Definition


Weather Definition


TIME
00:00 Legend Double Dagger 4.8 0.9 76 24 6 24.1 101.78     LegendNANA
01:00 Legend Double Dagger 3.1 0.8 85 24 5 24.1 101.76     LegendNANA
02:00 Legend Double Dagger 5.1 0.8 74 26 10 24.1 101.76     Clear
03:00 Legend Double Dagger 4.8 1.8 81 26 10 24.1 101.72     LegendNANA
04:00 Legend Double Dagger 5.5 2.8 83 24 10 24.1 101.67     LegendNANA
05:00 Legend Double Dagger 5.9 3.1 82 26 10 24.1 101.63     Clear
06:00 Legend Double Dagger 5.2 2.8 85 26 11 24.1 101.62     LegendNANA
07:00 Legend Double Dagger 6.7 3.7 81 25 13 24.1 101.60     LegendNANA
08:00 Legend Double Dagger 8.9 4.2 72 25 16 24.1 101.58     Mainly Clear
09:00 Legend Double Dagger 11.0 4.2 63 25 17 24.1 101.57     LegendNANA
10:00 Legend Double Dagger 12.2 3.2 54 25 27 24.1 101.51     LegendNANA
11:00 Legend Double Dagger 12.9 3.6 53 24 26 24.1 101.44     Clear
12:00 Legend Double Dagger 14.4 3.2 47 24 22 24.1 101.35     LegendNANA
13:00 Legend Double Dagger 15.4 4.6 48 23 22 24.1 101.27     LegendNANA
14:00 Legend Double Dagger 15.6 4.0 46 24 29 24.1 101.17     Clear
15:00 Legend Double Dagger 16.0 3.4 43 25 25 24.1 101.12     LegendNANA
16:00 Legend Double Dagger 15.7 3.6 44 25 21 24.1 101.12     LegendNANA
17:00 Legend Double Dagger 14.7 5.6 54 25 20 24.1 101.12     Clear
18:00 Legend Double Dagger 13.0 7.4 68 25 14 24.1 101.16     LegendNANA
19:00 Legend Double Dagger 12.0 7.9 75 25 13 24.1 101.23     LegendNANA
20:00 Legend Double Dagger 11.6 7.7 77 25 16 24.1 101.25     Clear
21:00 Legend Double Dagger 11.2 8.5 83 26 14 24.1 101.27     LegendNANA
22:00 Legend Double Dagger 10.6 7.6 82 27 14 24.1 101.26     LegendNANA
23:00 Legend Double Dagger 10.2 6.9 79 27 12 24.1 101.26     Clear

Notes on Data Quality.

Legend

  • E = Estimated
  • M = Missing
  • NA = Not Available
  • ‡ = Partner data that is not subject to review by the National Climate Archives
Date modified: